Wind_Speed
46 45 44 44 45 46 46 46 46 46 45 45 45 45 46 47 47 47 48 48 49 50 50 51 51 51 52 52 52 52 52 52 52 51 51 51 51 52
46 46 46 46 45 46 46 46 47 46 45 45 45 44 44 45 46 47 47 48 49 50 51 51 51 51 52 52 52 52 51 51 51 51 50 50 51 51
46 47 47 47 46 46 45 45 46 46 46 45 45 45 45 45 46 46 47 48 49 50 50 51 51 51 51 51 50 50 51 51 51 51 51 51 50 51
45 46 46 47 46 45 45 46 46 46 45 44 44 45 45 46 46 47 48 48 47 48 49 50 50 49 49 49 49 50 50 50 50 50 50 50 50 51
45 46 45 45 45 45 45 45 45 45 45 45 45 45 45 46 47 47 48 48 48 49 50 49 49 48 47 47 48 48 48 47 48 48 49 49 49 50
45 45 45 45 45 45 44 45 45 45 45 45 45 45 46 46 47 47 47 47 48 49 48 47 47 47 46 47 47 47 46 46 47 47 48 48 49 50
44 44 44 44 44 44 44 44 44 44 44 43 44 45 46 47 47 47 47 48 48 47 47 47 46 46 46 46 47 47 46 47 47 47 47 47 48 49
44 44 44 43 43 43 44 44 43 43 43 44 44 44 45 46 47 47 47 47 47 46 46 46 47 46 46 46 46 46 46 46 46 47 47 47 47 48
44 44 43 43 42 42 42 42 43 44 44 44 44 45 45 45 46 46 46 45 45 45 45 44 45 45 44 44 45 45 45 45 45 45 46 46 47 47
43 43 42 42 43 42 42 42 43 43 44 45 45 45 44 44 44 45 44 44 45 44 43 43 43 44 44 44 44 44 44 45 45 45 46 45 45 44
41 42 41 42 41 42 42 42 42 43 43 43 43 43 42 42 43 43 43 43 42 42 42 42 42 42 42 43 44 44 44 45 44 44 44 43 42 42
41 41 40 40 40 40 40 40 40 41 42 42 41 40 40 40 40 41 41 41 40 39 40 40 41 41 41 41 42 42 42 41 41 41 41 40 40 41
40 39 39 39 40 39 39 40 40 40 40 40 40 39 39 39 39 40 40 39 39 38 38 38 39 39 39 38 38 39 38 37 37 38 38 39 39 40
39 39 38 38 39 39 38 38 38 38 39 39 39 38 38 38 38 38 38 37 37 37 37 37 36 37 37 36 35 35 36 36 36 36 36 37 37 37
38 39 39 38 37 37 38 37 37 37 38 38 37 37 37 36 36 36 35 35 35 35 36 35 35 35 35 34 33 33 34 34 33 34 34 34 35 35
38 38 38 37 37 37 37 37 36 36 36 36 35 35 35 34 34 33 33 33 33 33 34 34 33 33 32 31 31 32 32 31 31 31 31 31 32 32
36 36 36 36 36 37 36 36 36 35 35 34 33 32 32 32 31 31 31 31 30 30 31 30 30 30 30 29 29 30 30 29 29 29 29 29 29 30
35 35 35 36 36 36 36 35 35 34 34 33 32 31 30 30 30 30 29 29 29 29 28 27 27 27 27 28 28 27 28 27 27 26 26 26 27 27
34 35 35 35 35 35 34 34 33 32 31 31 30 29 28 28 28 28 28 27 27 27 26 26 25 25 25 25 25 25 25 25 24 24 25 25 25 25
33 33 34 34 34 33 33 32 31 30 29 29 28 28 27 26 26 25 25 26 26 25 25 25 24 23 23 23 23 23 23 22 22 22 23 23 22 22
32 33 32 32 32 31 31 30 29 29 28 27 27 26 25 24 24 24 24 24 24 24 24 24 23 22 22 21 21 22 21 21 21 21 21 20 20 20
31 31 31 30 30 29 29 28 28 27 27 26 26 25 25 24 24 24 24 23 23 22 22 22 21 21 20 20 20 20 20 20 20 20 19 18 18 17
29 29 29 29 28 28 27 27 26 26 25 24 24 24 23 23 23 22 22 22 21 21 20 20 20 19 19 19 19 19 18 18 18 18 17 16 16 15
Wind_Direction
281 281 283 282 282 281 281 281 280 281 280 280 280 279 278 278 277 277 277 277 278 279 280 281 281 280 279 279 278 278 277 277 276 274 273 272 273 273
281 281 281 283 282 283 283 283 282 282 281 281 280 280 279 278 277 277 276 277 278 279 280 281 282 281 280 279 279 278 277 275 275 274 273 272 273 272
281 281 282 283 283 284 283 283 283 282 281 280 279 278 279 279 279 278 277 278 280 280 281 281 282 281 281 280 279 278 276 275 275 274 273 273 272 272
282 282 283 283 283 283 283 283 283 283 282 280 279 279 279 279 278 278 279 280 280 281 281 281 281 281 281 280 279 279 277 277 276 275 274 273 273 273
282 283 283 283 283 283 282 283 283 283 282 281 279 279 279 280 280 279 279 280 280 280 281 282 281 281 281 282 281 279 278 277 277 275 274 274 274 273
283 283 282 283 283 282 282 283 284 284 283 282 281 280 280 280 281 281 280 280 280 280 281 281 281 281 281 282 281 281 280 278 278 276 275 274 273 274
282 283 283 283 283 283 282 283 283 283 284 283 283 282 282 282 283 282 281 281 280 281 280 280 280 280 281 282 281 282 281 280 279 277 276 275 274 274
282 283 283 283 283 283 282 282 283 283 284 285 285 284 284 284 284 283 282 281 281 281 281 280 279 280 281 281 281 282 282 281 279 277 277 276 276 275
282 283 282 283 283 282 282 282 283 284 285 286 286 286 286 285 284 284 283 282 282 281 280 280 280 280 280 281 282 283 282 281 279 279 278 277 276 275
283 283 283 283 283 283 283 284 284 285 286 286 287 287 286 285 285 286 285 284 283 282 281 281 280 281 281 281 282 283 282 281 280 279 278 278 277 275
283 283 284 284 284 284 285 285 286 287 288 288 288 288 287 286 286 286 286 286 285 283 281 282 281 281 282 283 283 283 283 282 281 280 279 278 277 275
283 283 284 285 285 286 287 288 289 290 290 289 288 288 288 287 287 287 288 288 287 284 281 282 283 283 283 283 284 285 284 283 281 280 279 277 276 275
283 284 284 285 286 287 287 289 290 291 291 289 288 288 288 288 288 288 288 288 287 286 283 284 285 285 286 286 285 285 285 283 282 281 280 278 276 275
283 284 285 286 287 287 288 289 290 291 291 290 289 288 287 288 288 288 288 288 288 287 286 285 286 286 287 288 286 285 285 284 283 282 280 278 276 276
282 283 285 286 286 286 287 288 289 290 291 291 290 288 288 288 288 288 289 289 288 288 288 287 287 287 288 288 287 286 286 286 285 284 282 280 278 278
282 284 284 284 285 285 287 288 289 289 290 291 291 289 289 288 287 288 289 289 288 289 290 289 288 289 289 288 288 289 288 288 287 286 285 283 281 280
282 283 283 283 285 285 287 288 288 288 289 290 291 291 290 289 289 289 290 291 291 292 291 290 289 289 288 288 289 290 290 290 289 288 288 286 284 281
282 283 284 284 285 285 287 287 287 287 288 288 289 289 290 290 290 291 291 292 292 293 293 292 290 289 288 290 291 292 293 292 291 291 290 289 287 285
285 284 285 285 285 285 286 286 286 286 286 286 287 288 289 290 291 291 292 293 294 295 295 295 294 291 290 290 291 292 293 293 292 292 293 292 290 287
287 288 287 287 285 285 285 285 284 284 284 285 287 288 289 290 290 291 292 294 295 295 296 296 296 295 294 293 293 294 294 293 291 292 293 293 293 291
286 288 289 288 286 285 284 284 283 283 282 283 285 287 288 288 288 290 293 294 295 296 297 297 297 297 295 293 293 294 294 293 293 293 294 294 293 293
287 287 288 288 287 285 284 283 283 282 282 282 283 284 286 287 289 290 292 293 294 296 297 297 297 296 295 294 295 295 296 296 297 297 296 295 296 296
289 289 289 289 287 286 283 282 282 282 281 281 281 283 284 286 288 290 292 292 293 295 296 294 293 294 294 296 297 299 300 300 299 297 296 297 300 302
Height
5664 5662 5661 5659 5657 5655 5653 5651 5649 5648 5647 5645 5642 5640 5638 5637 5636 5635 5634 5634 5633 5631 5630 5629 5627 5625 5624 5622 5621 5619 5618 5617 5616 5615 5615 5615 5615 5614
5652 5651 5649 5647 5645 5643 5640 5638 5636 5634 5633 5632 5630 5627 5625 5624 5623 5622 5622 5621 5620 5618 5617 5615 5613 5611 5609 5607 5606 5604 5603 5602 5601 5600 5600 5600 5600 5599
5640 5638 5637 5635 5633 5631 5628 5626 5623 5621 5620 5619 5617 5615 5613 5612 5611 5609 5608 5607 5607 5605 5603 5601 5599 5597 5595 5593 5591 5589 5588 5587 5585 5585 5585 5585 5584 5584
5628 5626 5625 5623 5621 5619 5616 5614 5612 5609 5607 5606 5605 5603 5601 5600 5599 5597 5596 5594 5593 5591 5589 5587 5585 5582 5580 5578 5576 5575 5573 5572 5570 5570 5570 5570 5569 5568
5616 5615 5613 5611 5609 5607 5604 5602 5599 5597 5594 5593 5592 5590 5589 5587 5586 5585 5583 5581 5580 5577 5575 5573 5571 5569 5567 5565 5562 5561 5559 5558 5556 5555 5554 5554 5553 5552
5605 5603 5601 5599 5597 5594 5592 5590 5587 5585 5582 5580 5579 5578 5576 5575 5573 5571 5570 5568 5566 5564 5561 5559 5557 5555 5553 5551 5549 5547 5545 5543 5542 5541 5540 5539 5538 5537
5593 5591 5589 5587 5584 5582 5580 5578 5576 5573 5571 5569 5567 5565 5564 5562 5560 5558 5556 5554 5552 5550 5548 5546 5544 5543 5540 5538 5535 5533 5531 5530 5528 5527 5525 5524 5524 5523
5581 5579 5577 5575 5572 5570 5568 5566 5564 5562 5559 5557 5555 5553 5551 5549 5547 5544 5542 5541 5540 5538 5535 5533 5531 5529 5527 5525 5522 5520 5518 5516 5515 5513 5511 5510 5509 5508
5569 5567 5565 5563 5561 5558 5556 5554 5552 5550 5548 5545 5543 5541 5539 5537 5534 5532 5529 5527 5525 5523 5521 5520 5518 5516 5514 5512 5509 5507 5505 5503 5501 5499 5498 5496 5495 5493
5558 5556 5554 5552 5549 5547 5545 5543 5540 5538 5536 5533 5531 5528 5526 5523 5521 5519 5516 5514 5512 5509 5507 5507 5505 5503 5501 5499 5496 5494 5492 5490 5488 5486 5484 5482 5481 5479
5546 5545 5542 5540 5538 5536 5534 5532 5529 5527 5523 5521 5518 5516 5513 5511 5508 5506 5504 5502 5500 5498 5495 5494 5493 5491 5490 5487 5484 5481 5479 5477 5475 5472 5470 5469 5468 5467
5535 5533 5531 5529 5527 5525 5522 5520 5518 5515 5512 5509 5507 5504 5502 5499 5496 5494 5491 5489 5487 5486 5484 5482 5480 5478 5478 5476 5473 5469 5467 5464 5462 5460 5458 5457 5455 5454
5524 5522 5520 5518 5516 5514 5511 5509 5507 5504 5501 5498 5495 5493 5491 5488 5486 5483 5480 5478 5476 5474 5473 5471 5469 5467 5465 5464 5462 5458 5455 5453 5450 5448 5446 5444 5443 5442
5513 5511 5509 5507 5505 5503 5500 5498 5496 5493 5490 5487 5485 5482 5480 5478 5475 5472 5470 5467 5465 5463 5461 5459 5458 5456 5454 5452 5450 5448 5445 5442 5440 5437 5435 5433 5432 5430
5502 5500 5498 5496 5494 5492 5489 5487 5485 5482 5479 5477 5474 5472 5469 5467 5465 5462 5460 5457 5455 5452 5450 5448 5447 5445 5443 5441 5439 5437 5435 5432 5429 5427 5425 5423 5421 5419
5491 5489 5488 5486 5484 5481 5479 5477 5474 5472 5469 5467 5464 5462 5459 5457 5455 5453 5451 5448 5446 5444 5442 5439 5437 5435 5433 5431 5429 5427 5425 5422 5420 5418 5416 5414 5412 5410
5479 5478 5477 5475 5473 5471 5469 5467 5464 5462 5460 5457 5455 5453 5450 5448 5446 5444 5442 5440 5438 5436 5434 5431 5429 5426 5424 5423 5421 5419 5416 5414 5412 5410 5407 5406 5403 5401
5469 5468 5466 5465 5463 5461 5459 5457 5455 5452 5450 5448 5446 5444 5442 5440 5438 5436 5434 5432 5430 5428 5426 5424 5422 5420 5418 5416 5414 5411 5409 5406 5404 5402 5400 5398 5396 5394
5459 5457 5456 5454 5453 5451 5449 5447 5445 5443 5441 5439 5438 5436 5434 5432 5430 5429 5426 5424 5422 5420 5418 5416 5414 5413 5411 5409 5407 5404 5402 5399 5397 5395 5393 5391 5389 5387
5449 5447 5446 5444 5442 5441 5439 5437 5436 5434 5433 5431 5430 5428 5427 5425 5423 5422 5420 5418 5416 5414 5412 5409 5407 5406 5404 5402 5400 5398 5395 5393 5391 5389 5387 5384 5382 5380
5439 5438 5436 5434 5433 5431 5430 5428 5427 5426 5425 5424 5422 5421 5420 5418 5417 5415 5413 5411 5409 5407 5405 5403 5401 5399 5397 5396 5394 5392 5390 5387 5385 5383 5381 5378 5377 5375
5430 5428 5427 5425 5424 5422 5421 5420 5419 5418 5417 5416 5415 5414 5413 5411 5410 5409 5407 5405 5403 5401 5399 5397 5395 5393 5392 5390 5388 5386 5384 5382 5379 5377 5375 5373 5371 5370
5421 5419 5418 5416 5415 5414 5412 5412 5411 5410 5409 5408 5408 5407 5406 5405 5404 5402 5400 5399 5397 5396 5394 5392 5390 5388 5387 5385 5383 5381 5379 5377 5375 5373 5371 5369 5367 5365